Hourly Data Report for January 12, 2020

SATURNA ISLAND CS
BRITISH COLUMBIA
Current Station Operator: ECCC - MSC

48°47'02.067" N
123°02'41.082" W
24.40 m
1017101
71473
WEZ

Download Data

Hourly Data (January 2020)
Hourly Data Report for January 12, 2020
TIME
LST
Temp Definition
°C
Dew Point Definition
°C
Rel Hum Definition
%
Precip. Amount Definition
mm

Wind Dir Definition
10's deg

Wind Spd Definition
km/h
Visibility Definition
km
Stn Press Definition
kPa
Hmdx Definition


Wind Chill Definition


Weather Definition


00:00 4.1 3.0 92 0.4 18 28   100.44     LegendNANA
01:00 4.7 3.1 90 0.0 17 34   100.26     LegendNANA
02:00 5.0 3.8 92 0.0 16 44   100.11     LegendNANA
03:00 4.7 3.2 91 0.0 16 46   99.98     LegendNANA
04:00 5.0 3.6 91 0.2 18 39   99.84     LegendNANA
05:00 5.3 3.9 90 0.2 18 52   99.64     LegendNANA
06:00 5.5 4.3 93 1.2 19 43   99.55     LegendNANA
07:00 5.7 4.7 93 0.2 20 37   99.48     LegendNANA
08:00 5.8 4.6 92 0.0 20 52   99.35     LegendNANA
09:00 6.0 4.6 91 0.0 20 52   99.32     LegendNANA
10:00 6.1 4.6 90 0.0 21 38   99.31     LegendNANA
11:00 6.1 4.2 88 0.0 22 34   99.28     LegendNANA
12:00 6.1 3.1 81 0.0 25 11   99.30     LegendNANA
13:00 3.7 2.4 91 1.8 30 8   99.37     LegendNANA
14:00 3.9 2.8 93 1.4 28 7   99.44     LegendNANA
15:00 4.0 2.0 87 0.0 30 5   99.48     LegendNANA
16:00 3.6 1.4 85 0.0 30 5   99.54     LegendNANA
17:00 3.1 0.0 80 0.0 30 6   99.59     LegendNANA
18:00 0.8 -0.7 90 0.2 31 7   99.77     LegendNANA
19:00 0.0 -1.0 93   32 8   99.90   -3 LegendNANA
20:00 -0.3 -1.1 94   32 7   100.04   -3 LegendNANA
21:00 0.0 -2.1 86   30 7   100.15   -2 LegendNANA
22:00 0.2 -2.1 84   33 10   100.33     LegendNANA
23:00 -1.9 -4.0 86   7 44   100.41   -10 LegendNANA

Notes on Data Quality.

Legend

  • E = Estimated
  • M = Missing
  • NA = Not Available*
  • [empty] = Indicates an unobserved value
Date modified: